This demonstration page uses our WeatherBlox Daily Observations layout. Learn more.

Left ArrowRight Arrow

41.86663, -103.66717

Hourly Observations for January 13, 2018

Temp ( °F °C ) Dew Point ( °F °C ) Humidity (%) Winds ( mph kmh ) Pressure ( in mb ) Visibility ( mi km ) Precip ( " mm )
12:53 am 00:53 Cloudy 16 -8.9 11 -11.7 80 80 E 9 15 30.49 1033 10 16 N/A
1:53 am 01:53 Cloudy 16 -8.9 12 -11.1 84 84 ESE 9 15 30.49 1033 10 16 N/A
2:53 am 02:53 Cloudy 16 -8.9 13 -10.6 88 88 ESE 6 9 30.48 1032 10 16 N/A
3:53 am 03:53 Cloudy 16 -8.9 13 -10.6 88 88 ESE 7 11 30.47 1032 10 16 N/A
4:53 am 04:53 Cloudy 17 -8.3 13 -10.6 84 84 N N/A 30.47 1032 10 16 N/A
5:53 am 05:53 Cloudy 17 -8.3 13 -10.6 84 84 N N/A 30.48 1032 10 16 N/A
6:53 am 06:53 Cloudy 16 -8.9 14 -10 92 92 W 3 6 30.48 1032 10 16 N/A
7:53 am 07:53 Cloudy 17 -8.3 13 -10.6 84 84 W 5 7 30.47 1032 9 14 N/A
8:53 am 08:53 Cloudy 19 -7.2 15 -9.4 84 84 WNW 5 7 30.46 1031 10 16 N/A
9:53 am 09:53 Mostly Cloudy 22 -5.6 15 -9.4 75 75 N N/A 30.44 1031 10 16 N/A
10:53 am 10:53 Cloudy 23 -5 17 -8.3 78 78 N N/A 30.42 1030 10 16 N/A
11:53 am 11:53 Cloudy 24 -4.4 18 -7.8 77 77 N N/A 30.37 1029 10 16 N/A
12:53 pm 12:53 Cloudy 27 -2.8 19 -7.2 72 72 N N/A 30.32 1027 9 14 N/A
1:53 pm 13:53 Cloudy 29 -1.7 22 -5.6 75 75 E 3 6 30.30 1026 10 16 N/A
2:53 pm 14:53 Cloudy 29 -1.7 23 -5 78 78 SSE 6 9 30.31 1027 10 16 N/A
3:53 pm 15:53 Cloudy 29 -1.7 23 -5 78 78 E 6 9 30.33 1027 10 16 N/A
4:53 pm 16:53 Cloudy 28 -2.2 23 -5 81 81 ESE 6 9 30.34 1027 9 14 N/A
5:53 pm 17:53 Cloudy 28 -2.2 23 -5 81 81 N N/A 30.35 1028 10 16 N/A
6:53 pm 18:53 Cloudy 28 -2.2 24 -4.4 85 85 SW 5 7 30.39 1029 9 14 N/A
7:53 pm 19:53 Cloudy 29 -1.7 25 -3.9 85 85 N N/A 30.40 1030 9 14 N/A
8:53 pm 20:53 Cloudy 35 1.7 30 -1.1 82 82 W 12 19 30.38 1029 10 16 N/A
9:53 pm 21:53 Mostly Cloudy 36 2.2 31 -0.6 82 82 WNW 9 15 30.39 1029 10 16 N/A
10:53 pm 22:53 Cloudy 36 2.2 32 undefined 86 86 W 10 17 30.38 1029 10 16 N/A
11:53 pm 23:53 Cloudy 36 2.2 32 undefined 86 86 W 13 20 30.37 1029 10 16 N/A

Powered by AerisWeather